User: anonymous   Login
Location: Unspecified
(0.0000°N, 0.0000°E)
Time: 23:00:47
(UTC+00:00)
Language:

Gonets-D1 - Orbit

View from above orbital plane
View from above orbital plane
View from above satellite
View from above satellite

Ground track
Ground track

The orbit data is extracted from the following two-line orbital elements,

1 24727U 97006C   24108.28281337  .00000036  00000-0  14200-3 0  9992
2 24727  82.6084  38.2876 0001617  62.3572  92.5991 12.62351833251788
Epoch (UTC): 17 April 2024 06:47:15
Eccentricity: 0.0001617
inclination: 82.6084°
perigee height: 1412 km
apogee height: 1414 km
right ascension of ascending node: 38.2876°
argument of perigee: 62.3572°
revolutions per day: 12.62351833
mean anomaly at epoch: 92.5991°
orbit number at epoch: 25178

The dashed part of the orbit path shows where the satellite is in the earth's shadow,  

DLR